User: anonymous   Login
Location: Chiroubles
(46.1812°N, 4.6660°E)
Time: 16:05:08
(UTC+00:00)
Language:

Vanguard 2 Rocket - Orbit

View from above orbital plane
View from above orbital plane
View from above satellite
View from above satellite

Ground track
Ground track

The orbit data is extracted from the following two-line orbital elements,

1    12U 59001B   20330.76865266 +.00000313 +00000-0 +16649-3 0  9998
2    12 032.9014 146.5542 1666515 204.0792 147.2167 11.44359767541033
Epoch (UTC): 25 November 2020 18:26:51
Eccentricity: 0.1666515
inclination: 32.9014°
perigee height: 554 km
apogee height: 3326 km
right ascension of ascending node: 146.5542°
argument of perigee: 204.0792°
revolutions per day: 11.44359767
mean anomaly at epoch: 147.2167°
orbit number at epoch: 54103

The dashed part of the orbit path shows where the satellite is in the earth's shadow,  

DLR